Location: Westminster
(33.3626°N, 96.4619°W)
Time: 19:36:37
(UTC+00:00)

DMSP B5D2-2 - Pass Details

Date: 03 December 2021
Orbit: 790 x 805 km, 98.3° (Epoch: 26 January)

Event Time Altitude Azimuth Distance (km) Brightness Sun altitude
Rises 12:17:41 0° 161° (SSE) 3,284 7.9 -11.6°
Reaches altitude 10° 12:20:01 10° 159° (SSE) 2,356 7.1 -11.1°
Maximum altitude 12:25:12 73° 76° (ENE) 829 4.3 -10.1°
Drops below altitude 10° 12:30:24 10° 352° (N) 2,362 6.3 -9.1°
Sets 12:32:44 0° 351° (N) 3,293 7.0 -8.6°
